Flag for U.S.A. Weather past 2 weeks in New Salem, North Dakota, U.S.A.

Now
32 °F

Light snow. Ice fog.


Feels Like: 22 °F
Forecast: 22 / 31 °F
Wind: 15 mph from Northwest

Location: Bismarck Municipal Airport

Current Time: Jan 29, 2015 at 2:54:49 AM

Latest Report: Jan 29, 2015 at 1:52 AM


Visibility: 6 mi

Pressure: 30.35 "Hg

Humidity: 85%

Dew point: 28 °F

Location of New SalemLocation

Historic Weather in New Salem — Graph

°F

New Salem temperature yesterday

Maximum temperature yesterday: 38 °F (at 1:00 PM)
Minimum temperature yesterday: 25 °F (at 5:52 AM)
Average temperature yesterday: 31 °F

Past Weeks' High & Low Weather Summary

 TemperatureHumidityPressure
High51 °F (Jan 27, 2:52 PM)100% (Jan 28, 4:52 AM)30.42 "Hg (Jan 28, 4:52 AM)
Low4 °F (Jan 22, 12:01 AM)39% (Jan 27, 4:52 PM)29.57 "Hg (Jan 17, 12:52 AM)
Average32 °F79%29.97 "Hg
* Reported Jan 14 1:52 AM — Jan 29 1:52 AM, New Salem, Weather by CustomWeather, © 2014

Note: Actual official high and low records may vary slightly from our data, if they occured in-between our weather recording intervals... More about our weather records

Advertising

New Salem weather history for previous 24 hours

 ConditionsComfort  
Time TempWeatherWind HumidityBarometerVisibility
1:52 AM
Jan 29
32 °FLight snow. Ice fog.15 mph85%30.35 "Hg6 mi
12:52 AM32 °FOvercast.14 mph82%30.32 "Hg10 mi
11:52 PM
Jan 28
33 °FOvercast.17 mph78%30.30 "Hg10 mi
10:52 PM33 °FOvercast.15 mph82%30.27 "Hg10 mi
9:52 PM33 °FOvercast.24 mph82%30.24 "Hg10 mi
8:52 PM32 °FOvercast.22 mph82%30.22 "Hg10 mi
7:52 PM32 °FOvercast.20 mph82%30.19 "Hg10 mi
6:52 PM32 °FOvercast.23 mph85%30.16 "Hg10 mi
5:52 PM33 °FOvercast.22 mph82%30.11 "Hg10 mi
4:52 PM33 °FOvercast.23 mph82%30.06 "Hg10 mi
3:52 PM34 °FOvercast.22 mph85%30.01 "Hg10 mi
2:52 PM33 °FLow clouds.17 mph88%29.96 "Hg7 mi
1:52 PM33 °FLow clouds.18 mph92%29.91 "Hg9 mi
1:00 PM38 °FPartly sunny.12 mph79%29.81 "Hg9 mi
11:52 AM35 °FSunny.7 mph88%29.85 "Hg10 mi
10:52 AM34 °FSunny.3 mph92%29.83 "Hg10 mi
9:52 AM33 °FSunny.5 mph92%29.81 "Hg10 mi
8:52 AM28 °FSunny.5 mph96%29.80 "Hg10 mi
7:52 AM25 °FClear.No wind96%29.79 "Hg10 mi
6:52 AM28 °FClear.No wind96%29.78 "Hg10 mi
5:52 AM25 °FClear.5 mph96%29.77 "Hg10 mi
4:52 AM27 °FClear.No wind100%29.77 "Hg10 mi
3:52 AM28 °FClear.3 mph96%29.78 "Hg10 mi
2:52 AM29 °FClear.No wind96%29.78 "Hg9 mi
Weather by CustomWeather, © 2014

See weather overviewHow to use our weather pages